Location: Newark
(52.3500°N, 175.9667°E)
Time: 21:31:41
(UTC+00:00)

Altair - Pass Details

Date: 26 April 2021
Orbit: 1501 x 1683 km, 47.2° (Epoch: 05 May)

Event Time Altitude Azimuth Distance (km) Brightness Sun altitude
Rises 20:24:30 0° 275° (W) 4,853 9.6 30.6°
Reaches altitude 10° 20:27:43 10° 272° (W) 3,842 9.2 31.1°
Maximum altitude 20:37:10 58° 197° (SSW) 1,788 8.4 32.4°
Drops below altitude 10° 20:46:15 10° 122° (ESE) 3,699 10.9 33.7°
Sets 20:49:18 0° 118° (ESE) 4,662 11.1 34.1°
